Starlink 4371

operational
NORAD ID: 53232 Int'l Des: 2022-084 Owner: SPXS Country: US Constellation: starlink
LEOCIRCULARRETROGRADESSO

Starlink 4371について

説明を読み込み中...

リアルタイム位置

3D地球を読み込み中...

次回通過

高度履歴

Altitude vs Time

uPlot chart will show altitude changes over time

軌道要素

1 53232U 22084AV 26063.12115703 .00000971 00000-0 80100-4 0 9998
2 53232 97.6057 124.7546 0001122 165.4956 194.6301 15.01262823198486
Epoch: Mar 4, 2026 • Age: 21 hours

現在のステータス

高度 576.0 km
速度 7.58 km/s
衛星直下点 79.65°N, 124.54°W
打ち上げ日 Jul 22, 2022
運用期間 3.6 years
タイプ internet

技術仕様

分類 Payload
質量 297.00 kg
乾燥質量 275.00 kg
総質量 297.00 kg
長さ 0.20 m
直径 2.80 m
スパン 9.00 m
形状 Box + pan
製造者 SPXS
バスタイプ Starlink
フェーズステータス In Orbit
所有者/国 SPXS/US

大規模コンステレーション

Loading constellations...